Year,Month,Day,Hour,Minute,Value (Times are PST for temperature in C)
2008,08,09,00,00,16.60
2008,08,09,00,01,16.60
2008,08,09,00,02,16.50
2008,08,09,00,03,16.60
2008,08,09,00,04,16.60
2008,08,09,00,05,16.60
2008,08,09,00,06,16.60
2008,08,09,00,07,16.60
2008,08,09,00,08,16.60
2008,08,09,00,09,16.60
2008,08,09,00,10,16.60
2008,08,09,00,11,16.60
2008,08,09,00,12,16.60
2008,08,09,01,02,16.40
2008,08,09,01,03,16.40
2008,08,09,01,04,16.40
2008,08,09,01,05,16.40
2008,08,09,01,06,16.40
2008,08,09,01,07,16.30
2008,08,09,01,08,16.30
2008,08,09,01,09,16.30
2008,08,09,01,10,16.30
2008,08,09,01,11,16.30
2008,08,09,01,12,16.30
2008,08,09,01,13,16.30
2008,08,09,01,14,16.20
2008,08,09,01,15,16.20
2008,08,09,01,16,16.20
2008,08,09,01,17,16.20
2008,08,09,01,18,16.20
2008,08,09,01,19,16.20
2008,08,09,01,20,16.20
2008,08,09,01,21,16.20
2008,08,09,01,22,16.20
2008,08,09,01,23,16.20
2008,08,09,01,24,16.20
2008,08,09,01,25,16.20
2008,08,09,01,26,16.20
2008,08,09,01,27,16.20
2008,08,09,01,28,16.20
2008,08,09,01,29,16.20
2008,08,09,01,30,16.20
2008,08,09,01,31,16.20
2008,08,09,01,32,16.20
2008,08,09,01,33,16.30
2008,08,09,01,34,16.40
2008,08,09,01,35,16.40
2008,08,09,01,36,16.40
2008,08,09,01,37,16.50
2008,08,09,01,38,16.50
2008,08,09,01,39,16.60
2008,08,09,01,40,16.60
2008,08,09,01,41,16.60
2008,08,09,01,42,16.70
2008,08,09,01,43,16.70
2008,08,09,01,44,16.80
2008,08,09,01,45,16.80
2008,08,09,01,46,16.90
2008,08,09,01,47,17.00
2008,08,09,01,48,17.00
2008,08,09,01,49,17.10
2008,08,09,01,50,17.20
2008,08,09,01,51,17.20
2008,08,09,01,52,17.20
2008,08,09,01,53,17.20
2008,08,09,01,54,17.30
2008,08,09,01,55,17.30
2008,08,09,01,56,17.30
2008,08,09,01,57,17.30
2008,08,09,01,58,17.20
2008,08,09,01,59,17.20
2008,08,09,02,00,17.10
2008,08,09,02,01,17.00
2008,08,09,02,02,17.00
2008,08,09,02,03,17.00
2008,08,09,02,04,16.90
2008,08,09,02,05,16.90
2008,08,09,02,06,16.90
2008,08,09,02,07,16.80
2008,08,09,02,08,16.80
2008,08,09,02,09,16.70
2008,08,09,02,10,16.70
2008,08,09,02,11,16.70
2008,08,09,02,12,16.70
2008,08,09,02,13,16.70
2008,08,09,02,14,16.70
2008,08,09,02,15,16.70
2008,08,09,02,16,16.70
2008,08,09,02,17,16.60
2008,08,09,02,18,16.60
2008,08,09,02,19,16.60
2008,08,09,02,20,16.50
2008,08,09,02,21,16.40
2008,08,09,02,22,16.40
2008,08,09,02,23,16.40
2008,08,09,02,24,16.30
2008,08,09,02,25,16.30
2008,08,09,02,26,16.20
2008,08,09,02,27,16.20
2008,08,09,02,28,16.20
2008,08,09,02,29,16.10
2008,08,09,02,30,16.10
2008,08,09,02,31,16.00
2008,08,09,02,32,16.00
2008,08,09,02,33,16.00
2008,08,09,02,34,15.90
2008,08,09,02,35,15.90
2008,08,09,02,36,15.90
2008,08,09,02,37,16.00
2008,08,09,02,38,16.00
2008,08,09,02,39,16.10
2008,08,09,02,40,16.10
2008,08,09,02,41,16.20
2008,08,09,02,42,16.20
2008,08,09,02,43,16.20
2008,08,09,02,44,16.20
2008,08,09,02,45,16.20
2008,08,09,02,46,16.20
2008,08,09,02,47,16.20
2008,08,09,02,48,16.10
2008,08,09,02,49,16.10
2008,08,09,02,50,16.10
2008,08,09,02,51,16.10
2008,08,09,02,52,16.10
2008,08,09,02,53,16.10
2008,08,09,02,54,16.10
2008,08,09,02,55,16.10
2008,08,09,02,56,16.10
2008,08,09,02,57,16.10
2008,08,09,02,58,16.10
2008,08,09,02,59,16.10
2008,08,09,03,00,16.20
2008,08,09,03,01,16.20
2008,08,09,03,02,16.10
2008,08,09,03,03,16.10
2008,08,09,03,04,16.10
2008,08,09,03,05,16.20
2008,08,09,03,06,16.20
2008,08,09,03,07,16.30
2008,08,09,03,08,16.30
2008,08,09,03,09,16.40
2008,08,09,03,10,16.50
2008,08,09,03,11,16.60
2008,08,09,03,12,16.70
2008,08,09,03,13,16.80
2008,08,09,03,14,16.80
2008,08,09,03,15,16.80
2008,08,09,03,16,16.80
2008,08,09,03,17,16.90
2008,08,09,03,18,16.90
2008,08,09,03,19,16.90
2008,08,09,03,20,17.00
2008,08,09,03,21,17.00
2008,08,09,03,22,17.10
2008,08,09,03,23,17.10
2008,08,09,03,24,17.20
2008,08,09,03,25,17.20
2008,08,09,03,26,17.20
2008,08,09,03,27,17.30
2008,08,09,03,28,17.20
2008,08,09,03,29,17.20
2008,08,09,03,30,17.20
2008,08,09,03,31,17.20
2008,08,09,03,32,17.20
2008,08,09,03,33,17.10
2008,08,09,03,34,17.10
2008,08,09,03,35,17.10
2008,08,09,03,36,17.10
2008,08,09,03,37,17.10
2008,08,09,03,38,17.10
2008,08,09,03,39,17.10
2008,08,09,03,40,17.10
2008,08,09,03,41,17.10
2008,08,09,03,42,17.10
2008,08,09,03,43,17.10
2008,08,09,03,44,17.10
2008,08,09,03,45,17.10
2008,08,09,03,46,17.10
2008,08,09,03,47,17.00
2008,08,09,03,48,17.00
2008,08,09,03,49,17.00
2008,08,09,03,50,17.00
2008,08,09,03,51,16.90
2008,08,09,03,52,16.90
2008,08,09,03,53,16.90
2008,08,09,03,54,16.90
2008,08,09,03,55,16.90
2008,08,09,03,56,16.80
2008,08,09,03,57,16.80
2008,08,09,03,58,16.80
2008,08,09,03,59,16.80
2008,08,09,04,00,16.80
2008,08,09,04,01,16.80
2008,08,09,04,02,16.80
2008,08,09,04,03,16.80
2008,08,09,04,04,16.80
2008,08,09,04,05,16.80
2008,08,09,04,06,16.80
2008,08,09,04,07,16.80
2008,08,09,04,08,16.80
2008,08,09,04,09,16.80
2008,08,09,04,10,16.80
2008,08,09,04,11,16.80
2008,08,09,04,12,16.80
2008,08,09,04,13,16.80
2008,08,09,04,14,16.80
2008,08,09,04,15,16.80
2008,08,09,04,16,16.90
2008,08,09,04,17,16.90
2008,08,09,04,18,16.90
2008,08,09,04,19,16.90
2008,08,09,04,20,16.90
2008,08,09,04,21,16.90
2008,08,09,04,22,16.90
2008,08,09,04,23,16.90
2008,08,09,04,24,16.90
2008,08,09,04,25,16.90
2008,08,09,04,26,16.90
2008,08,09,04,27,16.90
2008,08,09,04,28,16.90
2008,08,09,04,29,16.90
2008,08,09,04,30,16.90
2008,08,09,04,31,16.90
2008,08,09,04,32,16.80
2008,08,09,04,33,16.80
2008,08,09,04,34,16.80
2008,08,09,04,35,16.80
2008,08,09,04,36,16.80
2008,08,09,04,37,16.70
2008,08,09,04,38,16.70
2008,08,09,04,39,16.70
2008,08,09,04,40,16.70
2008,08,09,04,41,16.70
2008,08,09,04,42,16.70
2008,08,09,04,43,16.70
2008,08,09,04,44,16.60
2008,08,09,04,45,16.60
2008,08,09,04,46,16.60
2008,08,09,04,47,16.60
2008,08,09,04,48,16.60
2008,08,09,04,49,16.60
2008,08,09,04,50,16.60
2008,08,09,04,51,16.60
2008,08,09,04,52,16.50
2008,08,09,04,53,16.50
2008,08,09,04,54,16.50
2008,08,09,04,55,16.50
2008,08,09,04,56,16.50
2008,08,09,04,57,16.60
2008,08,09,04,58,16.60
2008,08,09,04,59,16.60
2008,08,09,05,00,16.60
2008,08,09,05,01,16.60
2008,08,09,05,02,16.60
2008,08,09,05,03,16.50
2008,08,09,05,04,16.50
2008,08,09,05,05,16.50
2008,08,09,05,06,16.50
2008,08,09,05,07,16.50
2008,08,09,05,08,16.50
2008,08,09,05,09,16.50
2008,08,09,05,10,16.50
2008,08,09,05,11,16.50
2008,08,09,05,12,16.60
2008,08,09,05,13,16.60
2008,08,09,05,14,16.60
2008,08,09,05,15,16.60
2008,08,09,05,16,16.70
2008,08,09,05,17,16.70
2008,08,09,05,18,16.70
2008,08,09,05,19,16.70
2008,08,09,05,20,16.70
2008,08,09,05,21,16.70
2008,08,09,05,22,16.70
2008,08,09,05,23,16.70
2008,08,09,05,24,16.60
2008,08,09,05,25,16.60
2008,08,09,05,26,16.60
2008,08,09,05,27,16.60
2008,08,09,05,28,16.60
2008,08,09,05,29,16.70
2008,08,09,05,30,16.70
2008,08,09,05,31,16.70
2008,08,09,05,32,16.70
2008,08,09,05,33,16.70
2008,08,09,05,34,16.70
2008,08,09,05,35,16.70
2008,08,09,05,36,16.60
2008,08,09,05,37,16.60
2008,08,09,05,38,16.60
2008,08,09,05,39,16.60
2008,08,09,05,40,16.60
2008,08,09,05,41,16.60
2008,08,09,05,42,16.60
2008,08,09,05,43,16.60
2008,08,09,05,44,16.60
2008,08,09,05,45,16.60
2008,08,09,05,46,16.60
2008,08,09,05,47,16.60
2008,08,09,05,48,16.50
2008,08,09,05,49,16.50
2008,08,09,05,50,16.40
2008,08,09,05,51,16.40
2008,08,09,05,52,16.40
2008,08,09,05,53,16.40
2008,08,09,05,54,16.30
2008,08,09,05,55,16.30
2008,08,09,05,56,16.30
2008,08,09,05,57,16.30
2008,08,09,05,58,16.20
2008,08,09,05,59,16.20
2008,08,09,06,00,16.20
2008,08,09,06,01,16.20
2008,08,09,06,02,16.20
2008,08,09,06,03,16.20
2008,08,09,06,04,16.10
2008,08,09,06,05,16.10
2008,08,09,06,06,16.10
2008,08,09,06,07,16.10
2008,08,09,06,08,16.10
2008,08,09,06,09,16.00
2008,08,09,06,10,16.00
2008,08,09,06,11,15.90
2008,08,09,06,12,15.90
2008,08,09,06,13,15.90
2008,08,09,06,14,15.90
2008,08,09,06,15,15.90
2008,08,09,06,16,15.90
2008,08,09,06,17,15.90
2008,08,09,06,18,15.90
2008,08,09,06,19,15.90
2008,08,09,06,20,15.90
2008,08,09,06,21,15.90
2008,08,09,06,22,15.90
2008,08,09,06,23,15.90
2008,08,09,06,24,15.90
2008,08,09,06,25,15.90
2008,08,09,06,26,15.90
2008,08,09,06,27,15.90
2008,08,09,06,28,15.90
2008,08,09,06,29,15.90
2008,08,09,06,30,15.90
2008,08,09,06,31,15.90
2008,08,09,06,32,15.90
2008,08,09,06,33,16.00
2008,08,09,06,34,16.00
2008,08,09,06,35,16.10
2008,08,09,06,36,16.10
2008,08,09,06,37,16.10
2008,08,09,06,38,16.20
2008,08,09,06,39,16.20
2008,08,09,06,40,16.20
2008,08,09,06,41,16.20
2008,08,09,06,42,16.20
2008,08,09,06,43,16.20
2008,08,09,06,44,16.10
2008,08,09,06,45,16.10
2008,08,09,06,46,16.10
2008,08,09,06,47,16.10
2008,08,09,06,48,16.10
2008,08,09,06,49,16.10
2008,08,09,06,50,16.00
2008,08,09,06,51,16.00
2008,08,09,06,52,16.00
2008,08,09,06,53,16.00
2008,08,09,06,54,16.00
2008,08,09,06,55,16.00
2008,08,09,06,56,16.00
2008,08,09,06,57,16.00
2008,08,09,06,58,15.90
2008,08,09,06,59,15.90
2008,08,09,07,00,15.90
2008,08,09,07,01,15.90
2008,08,09,07,02,15.90
2008,08,09,07,03,16.00
2008,08,09,07,04,16.00
2008,08,09,07,05,16.00
2008,08,09,07,06,16.00
2008,08,09,07,07,16.00
2008,08,09,07,08,16.10
2008,08,09,07,09,16.10
2008,08,09,07,10,16.10
2008,08,09,07,11,16.10
2008,08,09,07,12,16.00
2008,08,09,07,13,16.00
2008,08,09,07,14,16.00
2008,08,09,07,15,15.90
2008,08,09,07,16,15.90
2008,08,09,07,17,15.90
2008,08,09,07,18,15.80
2008,08,09,07,19,15.80
2008,08,09,07,20,15.80
2008,08,09,07,21,15.80
2008,08,09,07,22,15.80
2008,08,09,07,23,15.80
2008,08,09,07,24,15.80
2008,08,09,07,25,15.80
2008,08,09,07,26,15.80
2008,08,09,07,27,15.80
2008,08,09,07,28,15.80
2008,08,09,07,29,15.70
2008,08,09,07,30,15.70
2008,08,09,07,31,15.70
2008,08,09,07,32,15.70
2008,08,09,07,33,15.60
2008,08,09,07,34,15.60
2008,08,09,07,35,15.60
2008,08,09,07,36,15.60
2008,08,09,07,37,15.60
2008,08,09,07,38,15.60
2008,08,09,07,39,15.60
2008,08,09,07,40,15.60
2008,08,09,07,41,15.60
2008,08,09,07,42,15.50
2008,08,09,07,43,15.50
2008,08,09,07,44,15.50
2008,08,09,07,45,15.60
2008,08,09,07,46,15.60
2008,08,09,07,47,15.70
2008,08,09,07,48,15.70
2008,08,09,07,49,15.80
2008,08,09,07,50,15.90
2008,08,09,07,51,16.00
2008,08,09,07,52,16.10
2008,08,09,07,53,16.10
2008,08,09,07,54,16.10
2008,08,09,07,55,16.10
2008,08,09,07,56,16.10
2008,08,09,07,57,16.10
2008,08,09,07,58,16.10
2008,08,09,07,59,16.20
2008,08,09,08,00,16.20
2008,08,09,08,01,16.20
2008,08,09,08,02,16.30
2008,08,09,08,03,16.40
2008,08,09,08,04,16.40
2008,08,09,08,05,16.50
2008,08,09,08,06,16.60
2008,08,09,08,07,16.70
2008,08,09,08,08,16.80
2008,08,09,08,09,16.80
2008,08,09,08,10,16.90
2008,08,09,08,11,17.00
2008,08,09,08,12,17.10
2008,08,09,08,13,17.10
2008,08,09,08,14,17.10
2008,08,09,08,15,17.10
2008,08,09,08,16,17.10
2008,08,09,08,17,17.20
2008,08,09,08,18,17.20
2008,08,09,08,19,17.20
2008,08,09,08,20,17.20
2008,08,09,08,21,17.20
2008,08,09,08,22,17.10
2008,08,09,08,23,17.10
2008,08,09,08,24,17.10
2008,08,09,08,25,17.10
2008,08,09,08,26,17.20
2008,08,09,08,27,17.20
2008,08,09,08,28,17.10
2008,08,09,08,29,17.10
2008,08,09,08,30,17.00
2008,08,09,08,31,16.90
2008,08,09,08,32,16.90
2008,08,09,08,33,16.80
2008,08,09,08,34,16.80
2008,08,09,08,35,16.80
2008,08,09,08,36,16.80
2008,08,09,08,37,16.80
2008,08,09,08,38,16.80
2008,08,09,08,39,16.70
2008,08,09,08,40,16.70
2008,08,09,08,41,16.70
2008,08,09,08,42,16.70
2008,08,09,08,43,16.70
2008,08,09,08,44,16.70
2008,08,09,08,45,16.70
2008,08,09,08,46,16.70
2008,08,09,08,47,16.80
2008,08,09,08,48,16.80
2008,08,09,08,49,16.80
2008,08,09,08,50,16.80
2008,08,09,08,51,16.90
2008,08,09,08,52,16.90
2008,08,09,08,53,17.00
2008,08,09,08,54,17.00
2008,08,09,08,55,17.00
2008,08,09,08,56,17.10
2008,08,09,08,57,17.10
2008,08,09,08,58,17.10
2008,08,09,08,59,17.10
2008,08,09,09,00,17.20
2008,08,09,09,01,17.10
2008,08,09,09,02,17.10
2008,08,09,09,03,16.90
2008,08,09,09,04,16.80
2008,08,09,09,05,16.70
2008,08,09,09,06,16.70
2008,08,09,09,07,16.70
2008,08,09,09,08,16.70
2008,08,09,09,09,16.80
2008,08,09,09,10,16.80
2008,08,09,09,11,16.90
2008,08,09,09,12,16.90
2008,08,09,09,13,17.00
2008,08,09,09,14,17.00
2008,08,09,09,15,17.10
2008,08,09,09,16,17.10
2008,08,09,09,17,17.10
2008,08,09,09,18,17.10
2008,08,09,09,19,17.00
2008,08,09,09,20,17.00
2008,08,09,09,21,17.10
2008,08,09,09,22,17.20
2008,08,09,09,23,17.20
2008,08,09,09,24,17.30
2008,08,09,09,25,17.20
2008,08,09,09,26,17.30
2008,08,09,09,27,17.30
2008,08,09,09,28,17.30
2008,08,09,09,29,17.40
2008,08,09,09,30,17.50
2008,08,09,09,31,17.60
2008,08,09,09,32,17.70
2008,08,09,09,33,17.70
2008,08,09,09,34,17.80
2008,08,09,09,35,17.80
2008,08,09,09,36,17.70
2008,08,09,09,37,17.70
2008,08,09,09,38,17.60
2008,08,09,09,39,17.60
2008,08,09,09,40,17.60
2008,08,09,09,41,17.70
2008,08,09,09,42,17.70
2008,08,09,09,43,17.70
2008,08,09,09,44,17.70
2008,08,09,09,45,17.70
2008,08,09,09,46,17.70
2008,08,09,09,47,17.90
2008,08,09,09,48,17.90
2008,08,09,09,49,17.90
2008,08,09,09,50,17.90
2008,08,09,09,51,17.90
2008,08,09,09,52,17.80
2008,08,09,09,53,17.80
2008,08,09,09,54,17.70
2008,08,09,09,55,17.60
2008,08,09,09,56,17.60
2008,08,09,09,57,17.60
2008,08,09,09,58,17.60
2008,08,09,09,59,17.60
2008,08,09,10,00,17.60
2008,08,09,10,01,17.60
2008,08,09,10,02,17.50
2008,08,09,10,03,17.40
2008,08,09,10,04,17.40
2008,08,09,10,05,17.30
2008,08,09,10,06,17.30
2008,08,09,10,07,17.30
2008,08,09,10,08,17.30
2008,08,09,10,09,17.30
2008,08,09,10,10,17.40
2008,08,09,10,11,17.50
2008,08,09,10,12,17.70
2008,08,09,10,13,17.70
2008,08,09,10,14,17.80
2008,08,09,10,15,17.80
2008,08,09,10,16,17.70
2008,08,09,10,17,17.70
2008,08,09,10,18,17.60
2008,08,09,10,19,17.50
2008,08,09,10,20,17.50
2008,08,09,10,21,17.50
2008,08,09,10,22,17.40
2008,08,09,10,23,17.40
2008,08,09,10,24,17.40
2008,08,09,10,25,17.30
2008,08,09,10,26,17.30
2008,08,09,10,27,17.30
2008,08,09,10,28,17.30
2008,08,09,10,29,17.40
2008,08,09,10,30,17.40
2008,08,09,10,31,17.50
2008,08,09,10,32,17.60
2008,08,09,10,33,17.70
2008,08,09,10,34,17.80
2008,08,09,10,35,17.80
2008,08,09,10,36,17.90
2008,08,09,10,37,18.10
2008,08,09,10,38,18.10
2008,08,09,10,39,18.00
2008,08,09,10,40,18.00
2008,08,09,10,41,17.90
2008,08,09,10,42,17.90
2008,08,09,10,43,17.80
2008,08,09,10,44,17.80
2008,08,09,10,45,17.80
2008,08,09,10,46,17.80
2008,08,09,10,47,17.80
2008,08,09,10,48,17.80
2008,08,09,10,49,17.80
2008,08,09,10,50,17.80
2008,08,09,10,51,17.80
2008,08,09,10,52,17.80
2008,08,09,10,53,17.80
2008,08,09,10,54,17.80
2008,08,09,10,55,17.80
2008,08,09,10,56,17.80
2008,08,09,10,57,17.80
2008,08,09,10,58,17.80
2008,08,09,10,59,17.80
2008,08,09,11,00,17.80
2008,08,09,11,01,17.80
2008,08,09,11,02,17.80
2008,08,09,11,03,17.80
2008,08,09,11,04,17.80
2008,08,09,11,05,17.90
2008,08,09,11,06,18.00
2008,08,09,11,07,18.00
2008,08,09,11,08,18.10
2008,08,09,11,09,18.10
2008,08,09,11,10,18.10
2008,08,09,11,11,18.00
2008,08,09,11,12,18.00
2008,08,09,11,13,18.00
2008,08,09,11,14,18.00
2008,08,09,11,15,17.90
2008,08,09,11,16,17.90
2008,08,09,11,17,17.90
2008,08,09,11,18,17.90
2008,08,09,11,19,17.90
2008,08,09,11,20,17.90
2008,08,09,11,21,17.90
2008,08,09,11,22,18.00
2008,08,09,11,23,18.00
2008,08,09,11,24,18.00
2008,08,09,11,25,18.00
2008,08,09,11,26,18.00
2008,08,09,11,27,17.90
2008,08,09,11,28,17.90
2008,08,09,11,29,18.00
2008,08,09,11,30,18.00
2008,08,09,11,31,18.00
2008,08,09,11,32,18.00
2008,08,09,11,33,18.10
2008,08,09,11,34,18.10
2008,08,09,11,35,18.10
2008,08,09,11,36,18.20
2008,08,09,11,37,18.20
2008,08,09,11,38,18.30
2008,08,09,11,39,18.40
2008,08,09,11,40,18.40
2008,08,09,11,41,18.50
2008,08,09,11,42,18.60
2008,08,09,11,43,18.60
2008,08,09,11,44,18.60
2008,08,09,11,45,18.70
2008,08,09,11,46,18.70
2008,08,09,11,47,18.80
2008,08,09,11,48,18.80
2008,08,09,11,49,18.80
2008,08,09,11,50,18.90
2008,08,09,11,51,18.90
2008,08,09,11,52,18.90
2008,08,09,11,53,18.90
2008,08,09,11,54,18.90
2008,08,09,11,55,18.90
2008,08,09,11,56,18.80
2008,08,09,11,57,18.80
2008,08,09,11,58,18.70
2008,08,09,11,59,18.70
2008,08,09,12,00,18.60
2008,08,09,12,01,18.60
2008,08,09,12,02,18.50
2008,08,09,12,03,18.50
2008,08,09,12,04,18.40
2008,08,09,12,05,18.50
2008,08,09,12,06,18.50
2008,08,09,12,07,18.40
2008,08,09,12,08,18.40
2008,08,09,12,09,18.30
2008,08,09,12,10,18.30
2008,08,09,12,11,18.30
2008,08,09,12,12,18.30
2008,08,09,12,13,18.30
2008,08,09,12,14,18.30
2008,08,09,12,15,18.30
2008,08,09,12,16,18.30
2008,08,09,12,17,18.20
2008,08,09,12,18,18.20
2008,08,09,12,19,18.20
2008,08,09,12,20,18.20
2008,08,09,12,21,18.20
2008,08,09,12,22,18.20
2008,08,09,12,23,18.10
2008,08,09,12,24,18.00
2008,08,09,12,25,17.90
2008,08,09,12,26,17.80
2008,08,09,12,27,17.80
2008,08,09,12,28,17.80
2008,08,09,12,29,17.70
2008,08,09,12,30,17.70
2008,08,09,12,31,17.70
2008,08,09,12,32,17.70
2008,08,09,12,33,17.70
2008,08,09,12,34,17.60
2008,08,09,12,35,17.60
2008,08,09,12,36,17.60
2008,08,09,12,37,17.60
2008,08,09,12,38,17.60
2008,08,09,12,39,17.50
2008,08,09,12,40,17.50
2008,08,09,12,41,17.50
2008,08,09,12,42,17.50
2008,08,09,12,43,17.40
2008,08,09,12,44,17.40
2008,08,09,12,45,17.40
2008,08,09,12,46,17.40
2008,08,09,12,47,17.40
2008,08,09,12,48,17.40
2008,08,09,12,49,17.40
2008,08,09,12,50,17.40
2008,08,09,12,51,17.40
2008,08,09,12,52,17.30
2008,08,09,12,53,17.40
2008,08,09,12,54,17.40
2008,08,09,12,55,17.40
2008,08,09,12,56,17.40
2008,08,09,12,57,17.40
2008,08,09,12,58,17.50
2008,08,09,12,59,17.50
2008,08,09,13,00,17.60
2008,08,09,13,01,17.60
2008,08,09,13,02,17.60
2008,08,09,13,03,17.70
2008,08,09,13,04,17.70
2008,08,09,13,05,17.70
2008,08,09,13,06,17.70
2008,08,09,13,07,17.80
2008,08,09,13,08,17.80
2008,08,09,13,09,17.70
2008,08,09,13,10,17.70
2008,08,09,13,11,17.70
2008,08,09,13,12,17.70
2008,08,09,13,13,17.70
2008,08,09,13,14,17.70
2008,08,09,13,15,17.70
2008,08,09,13,16,17.70
2008,08,09,13,17,17.70
2008,08,09,13,18,17.70
2008,08,09,13,19,17.70
2008,08,09,13,20,17.80
2008,08,09,13,21,17.80
2008,08,09,13,22,17.80
2008,08,09,13,23,17.80
2008,08,09,13,24,17.80
2008,08,09,13,25,17.80
2008,08,09,13,26,17.80
2008,08,09,13,27,17.80
2008,08,09,13,28,17.80
2008,08,09,13,29,17.80
2008,08,09,13,30,17.90
2008,08,09,13,31,17.90
2008,08,09,13,32,17.90
2008,08,09,13,33,17.90
2008,08,09,13,34,17.90
2008,08,09,13,35,18.00
2008,08,09,13,36,18.00
2008,08,09,13,37,17.90
2008,08,09,13,38,17.90
2008,08,09,13,39,18.00
2008,08,09,13,40,18.00
2008,08,09,13,41,18.00
2008,08,09,13,42,18.00
2008,08,09,13,43,17.90
2008,08,09,13,44,17.80
2008,08,09,13,45,17.70
2008,08,09,13,46,17.70
2008,08,09,13,47,17.60
2008,08,09,13,48,17.60
2008,08,09,13,49,17.60
2008,08,09,13,50,17.50
2008,08,09,13,51,17.50
2008,08,09,13,52,17.40
2008,08,09,13,53,17.40
2008,08,09,13,54,17.40
2008,08,09,13,55,17.40
2008,08,09,13,56,17.40
2008,08,09,13,57,17.40
2008,08,09,13,58,17.40
2008,08,09,13,59,17.40
2008,08,09,14,00,17.40
2008,08,09,14,01,17.40
2008,08,09,14,02,17.40
2008,08,09,14,03,17.50
2008,08,09,14,04,17.50
2008,08,09,14,05,17.60
2008,08,09,14,06,17.60
2008,08,09,14,07,17.60
2008,08,09,14,08,17.70
2008,08,09,14,09,17.70
2008,08,09,14,10,17.80
2008,08,09,14,11,17.80
2008,08,09,14,12,17.90
2008,08,09,14,13,17.90
2008,08,09,14,14,18.00
2008,08,09,14,15,18.10
2008,08,09,14,16,18.10
2008,08,09,14,17,18.20
2008,08,09,14,18,18.30
2008,08,09,14,19,18.30
2008,08,09,14,20,18.40
2008,08,09,14,21,18.40
2008,08,09,14,22,18.40
2008,08,09,14,23,18.40
2008,08,09,14,24,18.40
2008,08,09,14,25,18.50
2008,08,09,14,26,18.70
2008,08,09,14,27,18.80
2008,08,09,14,28,18.90
2008,08,09,14,29,18.90
2008,08,09,14,30,18.90
2008,08,09,14,31,19.00
2008,08,09,14,32,19.10
2008,08,09,14,33,19.10
2008,08,09,14,34,19.20
2008,08,09,14,35,19.20
2008,08,09,14,36,19.10
2008,08,09,14,37,19.00
2008,08,09,14,38,18.90
2008,08,09,14,39,18.80
2008,08,09,14,40,18.80
2008,08,09,14,41,18.80
2008,08,09,14,42,18.80
2008,08,09,14,43,18.70
2008,08,09,14,44,18.60
2008,08,09,14,45,18.60
2008,08,09,14,46,18.60
2008,08,09,14,47,18.60
2008,08,09,14,48,18.70
2008,08,09,14,49,18.80
2008,08,09,14,50,18.80
2008,08,09,14,51,18.90
2008,08,09,14,52,19.00
2008,08,09,14,53,19.10
2008,08,09,14,54,19.10
2008,08,09,14,55,19.10
2008,08,09,14,56,19.10
2008,08,09,14,57,19.10
2008,08,09,14,58,19.10
2008,08,09,14,59,19.10
2008,08,09,15,00,19.10
2008,08,09,15,01,19.10
2008,08,09,15,02,19.00
2008,08,09,15,03,19.00
2008,08,09,15,04,18.90
2008,08,09,15,05,18.90
2008,08,09,15,06,18.90
2008,08,09,15,07,18.80
2008,08,09,15,08,18.70
2008,08,09,15,09,18.60
2008,08,09,15,10,18.50
2008,08,09,15,11,18.40
2008,08,09,15,12,18.30
2008,08,09,15,13,18.20
2008,08,09,15,14,18.10
2008,08,09,15,15,18.00
2008,08,09,15,16,17.90
2008,08,09,15,17,17.80
2008,08,09,15,18,17.70
2008,08,09,15,19,17.70
2008,08,09,15,20,17.60
2008,08,09,15,21,17.60
2008,08,09,15,22,17.60
2008,08,09,15,23,17.50
2008,08,09,15,24,17.40
2008,08,09,15,25,17.40
2008,08,09,15,26,17.30
2008,08,09,15,27,17.30
2008,08,09,15,28,17.30
2008,08,09,15,29,17.30
2008,08,09,15,30,17.20
2008,08,09,15,31,17.20
2008,08,09,15,32,17.10
2008,08,09,15,33,17.10
2008,08,09,15,34,17.10
2008,08,09,15,35,17.00
2008,08,09,15,36,17.10
2008,08,09,15,37,17.10
2008,08,09,15,38,17.10
2008,08,09,15,39,17.10
2008,08,09,15,40,17.10
2008,08,09,15,41,17.20
2008,08,09,15,42,17.20
2008,08,09,15,43,17.20
2008,08,09,15,44,17.20
2008,08,09,15,45,17.20
2008,08,09,15,46,17.20
2008,08,09,15,47,17.20
2008,08,09,15,48,17.20
2008,08,09,15,49,17.30
2008,08,09,15,50,17.30
2008,08,09,15,51,17.40
2008,08,09,15,52,17.40
2008,08,09,15,53,17.40
2008,08,09,15,54,17.50
2008,08,09,15,55,17.60
2008,08,09,15,56,17.70
2008,08,09,15,57,17.70
2008,08,09,15,58,17.80
2008,08,09,15,59,17.90
2008,08,09,16,00,18.00
2008,08,09,16,01,18.00
2008,08,09,16,02,18.00
2008,08,09,16,03,18.10
2008,08,09,16,04,18.00
2008,08,09,16,05,18.00
2008,08,09,16,06,18.00
2008,08,09,16,07,17.90
2008,08,09,16,08,17.90
2008,08,09,16,09,17.90
2008,08,09,16,10,17.90
2008,08,09,16,11,18.00
2008,08,09,16,12,18.00
2008,08,09,16,13,18.00
2008,08,09,16,14,18.00
2008,08,09,16,15,17.90
2008,08,09,16,16,17.90
2008,08,09,16,17,17.90
2008,08,09,16,18,17.90
2008,08,09,16,19,17.90
2008,08,09,16,20,17.90
2008,08,09,16,21,17.80
2008,08,09,16,22,17.80
2008,08,09,16,23,17.80
2008,08,09,16,24,17.80
2008,08,09,16,25,17.80
2008,08,09,16,26,17.80
2008,08,09,16,27,17.80
2008,08,09,16,28,17.80
2008,08,09,16,29,17.80
2008,08,09,16,30,17.80
2008,08,09,16,31,17.80
2008,08,09,16,32,17.70
2008,08,09,16,33,17.70
2008,08,09,16,34,17.70
2008,08,09,16,35,17.70
2008,08,09,16,36,17.70
2008,08,09,16,37,17.60
2008,08,09,16,38,17.60
2008,08,09,16,39,17.60
2008,08,09,16,40,17.70
2008,08,09,16,41,17.70
2008,08,09,16,42,17.70
2008,08,09,16,43,17.70
2008,08,09,16,44,17.70
2008,08,09,16,45,17.70
2008,08,09,16,46,17.70
2008,08,09,16,47,17.60
2008,08,09,16,48,17.60
2008,08,09,16,49,17.70
2008,08,09,16,50,17.60
2008,08,09,16,51,17.60
2008,08,09,16,52,17.60
2008,08,09,16,53,17.60
2008,08,09,16,54,17.60
2008,08,09,16,55,17.60
2008,08,09,16,56,17.60
2008,08,09,16,57,17.60
2008,08,09,16,58,17.70
2008,08,09,16,59,17.70
2008,08,09,17,00,17.70
2008,08,09,17,01,17.60
2008,08,09,17,02,17.60
2008,08,09,17,03,17.60
2008,08,09,17,04,17.60
2008,08,09,17,05,17.60
2008,08,09,17,06,17.60
2008,08,09,17,07,17.60
2008,08,09,17,08,17.60
2008,08,09,17,09,17.50
2008,08,09,17,10,17.50
2008,08,09,17,11,17.50
2008,08,09,17,12,17.50
2008,08,09,17,13,17.40
2008,08,09,17,14,17.50
2008,08,09,17,15,17.50
2008,08,09,17,16,17.50
2008,08,09,17,17,17.50
2008,08,09,17,18,17.50
2008,08,09,17,19,17.50
2008,08,09,17,20,17.50
2008,08,09,17,21,17.60
2008,08,09,17,22,17.60
2008,08,09,17,23,17.60
2008,08,09,17,24,17.60
2008,08,09,17,25,17.60
2008,08,09,17,26,17.60
2008,08,09,17,27,17.60
2008,08,09,17,28,17.60
2008,08,09,17,29,17.70
2008,08,09,17,30,17.70
2008,08,09,17,31,17.70
2008,08,09,17,32,17.70
2008,08,09,17,33,17.70
2008,08,09,17,34,17.80
2008,08,09,17,35,17.80
2008,08,09,17,36,17.80
2008,08,09,17,37,17.70
2008,08,09,17,38,17.70
2008,08,09,17,39,17.70
2008,08,09,17,40,17.60
2008,08,09,17,41,17.60
2008,08,09,17,42,17.50
2008,08,09,17,43,17.50
2008,08,09,17,44,17.40
2008,08,09,17,45,17.40
2008,08,09,17,46,17.40
2008,08,09,17,47,17.30
2008,08,09,17,48,17.30
2008,08,09,17,49,17.30
2008,08,09,17,50,17.30
2008,08,09,17,51,17.30
2008,08,09,17,52,17.20
2008,08,09,17,53,17.20
2008,08,09,17,54,17.20
2008,08,09,17,55,17.20
2008,08,09,17,56,17.10
2008,08,09,17,57,17.10
2008,08,09,17,58,17.10
2008,08,09,17,59,17.10
2008,08,09,18,00,17.00
2008,08,09,18,01,17.00
2008,08,09,18,02,17.00
2008,08,09,18,03,17.00
2008,08,09,18,04,17.00
2008,08,09,18,05,16.90
2008,08,09,18,06,16.90
2008,08,09,18,07,16.90
2008,08,09,18,08,16.90